Location: Hopkins Observatory
(42.6965°N, 73.1843°W)
Time: 20:17:01
(UTC-04:00)

Amateur Radio Satellites - All Passes

Search period start: 26 May 2016 19:47
Search period end: 27 May 2016 19:47
Location: Hopkins Observatory, 42.6965°N, 73.1843°W

Satellite Date Start Highest point End Downlink Frequencies (MHz)
Time Altitude Azimuth
DOVE 4 26 May 19:50:25 19:55:30 49° 261° (W) 20:00:25 437.250
AUBIESAT-1 26 May 19:51:03 19:55:13 76° 252° (WSW) 19:59:06 437.475
CUBEBUG 2 26 May 19:52:08 19:55:12 19° 66° (ENE) 19:58:12 437.445
CUTE-I 26 May 19:56:34 19:59:10 14° 271° (W) 20:01:46 437.470
M-CUBED/EXP-1 PRIME 26 May 19:56:44 20:00:53 53° 254° (WSW) 20:04:46 437.505
O/OREOS (USA 219) 26 May 19:58:44 20:03:14 76° 250° (WSW) 20:07:40 437.305
BEESAT 2 26 May 20:00:48 20:03:45 19° 43° (NE) 20:06:40 435.950
COMPASS 1 26 May 20:05:42 20:09:32 38° 71° (ENE) 20:13:24 437.405
BRITE-PL 26 May 20:06:54 20:08:39 11° 275° (W) 20:10:25 437.365/2234.400
AAUSAT CUBESAT 2 26 May 20:09:31 20:13:14 34° 70° (ENE) 20:16:59 437.432
HO-68 26 May 20:12:57 20:20:06 83° 254° (WSW) 20:27:18 435.675
PRISM 26 May 20:15:31 20:17:42 14° 91° (E) 20:19:53 437.425
UWE-3 26 May 20:22:32 20:26:08 27° 69° (ENE) 20:29:41 435.000/436.395/437.385
CINEMA 3 26 May 20:29:50 20:34:32 57° 260° (W) 20:39:03 145.822/145.860
FUNcube-1 26 May 20:30:25 20:33:32 20° 67° (ENE) 20:36:38 145.935
STRAND 1 26 May 20:31:20 20:36:29 73° 286° (WNW) 20:41:36 437.568
RS-15 26 May 20:34:16 20:44:40 36° 330° (NNW) 20:55:36 29.354- 29.394
BEESAT 3 26 May 20:37:15 20:41:12 65° 55° (NE) 20:45:06 437.485
GOMX 1 26 May 20:37:53 20:39:14 11° 274° (W) 20:40:35 467.674
CANX-2 26 May 20:48:10 20:51:56 31° 264° (W) 20:55:43 2200.000
DELFI C3 26 May 20:50:01 20:52:44 18° 66° (ENE) 20:55:28 145.870
PCSat 26 May 20:52:13 20:55:51 18° 255° (WSW) 20:59:28 145.827
SEEDS 26 May 20:52:51 20:56:49 43° 262° (W) 21:00:50 437.485
GONETS M04 26 May 21:00:42 21:07:35 27° 81° (E) 21:14:27
Oscar 11 26 May 21:14:22 21:18:38 74° 76° (ENE) 21:22:57 145.826/435.025
CUTE 1.7 + AOD 2 26 May 21:16:38 21:19:36 18° 268° (W) 21:22:34 437.475
ZACube-1 26 May 21:26:31 21:30:46 89° 84° (E) 21:34:58 437.345
CUBEBUG 2 26 May 21:27:23 21:31:33 41° 262° (W) 21:35:38 437.445
DANDE 26 May 21:29:31 21:32:57 13° 52° (NE) 21:36:20 436.750
ISS 26 May 21:31:11 21:33:56 25° 136° (SE) 21:36:41 145.825
BEESAT 2 26 May 21:37:59 21:41:51 49° 242° (WSW) 21:45:41 435.950
Cosmos 2499 26 May 21:40:56 21:46:30 25° 81° (E) 21:52:21 435.465 / 435.565
COMPASS 1 26 May 21:42:23 21:45:15 18° 268° (W) 21:48:08 437.405
AIST 1 26 May 21:42:24 21:46:48 88° 286° (WNW) 21:51:15
CUSAT 1 26 May 21:44:31 21:50:47 25° 62° (ENE) 21:56:22 437.405
HUMSAT D 26 May 21:44:41 21:48:21 33° 70° (ENE) 21:52:01 437.325/437.525
AAUSAT CUBESAT 2 26 May 21:45:43 21:48:48 20° 267° (W) 21:51:54 437.432
PRISM 26 May 21:49:14 21:53:19 51° 288° (WNW) 21:57:20 437.425
UWE-3 26 May 21:58:50 22:02:32 27° 264° (W) 22:06:10 435.000/436.395/437.385
AIST 2 26 May 22:00:58 22:04:19 23° 44° (NE) 22:07:38 435.215
HO-68 26 May 22:05:14 22:08:50 14° 272° (W) 22:12:26 435.675
FUNcube-1 26 May 22:05:41 22:09:34 35° 263° (W) 22:13:26 145.935
AISAT 26 May 22:12:51 22:14:13 11° 60° (ENE) 22:15:35 437.250
STRAND 1 26 May 22:13:59 22:14:44 10° 304° (NW) 22:15:29 437.568
BEESAT 3 26 May 22:17:01 22:18:20 11° 251° (WSW) 22:19:39 437.485
DELFI C3 26 May 22:23:39 22:27:20 36° 262° (W) 22:31:02 145.870
UNISAT 6 26 May 22:30:05 22:33:30 23° 94° (E) 22:36:56 437.425
TIGRISAT 26 May 22:37:52 22:41:27 26° 95° (E) 22:45:04 435.000
ESTCUBE 1 26 May 22:43:49 22:47:47 31° 68° (ENE) 22:51:46 437.505/2401.250
RS-15 26 May 22:52:40 23:02:07 25° 5° (N) 23:11:46 29.354- 29.394
GONETS M04 26 May 22:54:52 23:03:37 68° 281° (W) 23:12:23
PHONESAT 2.4 26 May 23:01:15 23:03:56 26° 159° (SSE) 23:06:37 2401.200-2431.200
CUBEBUG 1 26 May 23:05:47 23:09:49 36° 70° (ENE) 23:13:54 437.445
ISS 26 May 23:07:06 23:10:14 43° 333° (NNW) 23:13:23 145.825
DX 1 26 May 23:08:20 23:12:13 32° 69° (ENE) 23:16:09 434.975-435.025
DANDE 26 May 23:09:34 23:17:51 54° 74° (ENE) 23:25:26 436.750
VELOX 1 26 May 23:09:57 23:14:06 39° 70° (ENE) 23:18:17 145.980
ANTELSAT 26 May 23:10:43 23:14:59 63° 101° (E) 23:19:18 437.575/2403.000
50 SAT 26 May 23:17:16 23:20:45 48° 74° (ENE) 23:24:18 437.505
HUMSAT D 26 May 23:21:01 23:24:03 20° 266° (W) 23:27:05 437.325/437.525
CUSAT 1 26 May 23:25:56 23:33:47 72° 264° (W) 23:40:20 437.405
DUCHIFAT 1 26 May 23:26:36 23:28:59 15° 91° (E) 23:31:23 145.980
Cosmos 2499 26 May 23:31:44 23:38:52 62° 282° (WNW) 23:46:34 435.465 / 435.565
SPROUT 26 May 23:37:38 23:41:24 30° 69° (ENE) 23:45:09 437.525
AIST 2 26 May 23:39:03 23:42:57 42° 243° (WSW) 23:46:52 435.215
SO-50 26 May 23:43:45 23:46:28 15° 108° (ESE) 23:49:13 436.795
AISAT 26 May 23:45:32 23:50:01 83° 255° (WSW) 23:54:32 437.250
BUGSAT 1 26 May 23:49:43 23:51:12 12° 90° (E) 23:52:39 437.445
UKube-1 26 May 23:58:54 00:03:14 88° 251° (WSW) 00:07:37 .
POPSAT HIP 1 27 May 00:02:22 00:06:21 40° 98° (E) 00:10:17 437.405
QB50P1 27 May 00:02:51 00:06:51 41° 98° (E) 00:10:49 145.935-145.965
QB50P2 27 May 00:04:45 00:08:50 46° 99° (E) 00:12:52 145.880/145.840
TISAT 1 27 May 00:06:20 00:09:15 18° 65° (ENE) 00:12:11 437.305
UNISAT 6 27 May 00:06:25 00:10:16 32° 290° (WNW) 00:14:08 437.425
POLYITAN 1 27 May 00:07:12 00:11:16 47° 99° (E) 00:15:19 437.675
TIGRISAT 27 May 00:14:26 00:18:08 29° 291° (WNW) 00:21:50 435.000
ESTCUBE 1 27 May 00:20:47 00:24:35 26° 265° (W) 00:28:25 437.505/2401.250
NANOSAT C BR1 27 May 00:21:44 00:25:55 66° 102° (ESE) 00:30:04 145.865
PHONESAT 2.4 27 May 00:37:19 00:40:24 55° 176° (S) 00:43:29 2401.200-2431.200
JAS-2 27 May 00:41:08 00:47:07 26° 89° (E) 00:52:36 435.910
CUBEBUG 1 27 May 00:42:45 00:46:12 22° 266° (W) 00:49:40 437.445
DX 1 27 May 00:44:53 00:48:27 24° 265° (W) 00:52:02 434.975-435.025
ISS 27 May 00:44:57 00:47:17 18° 353° (N) 00:49:38 145.825
VELOX 1 27 May 00:47:23 00:50:43 20° 267° (W) 00:54:03 145.980
ANTELSAT 27 May 00:49:10 00:51:13 13° 298° (WNW) 00:53:17 437.575/2403.000
BEESAT 27 May 00:51:47 00:53:54 13° 59° (ENE) 00:56:00 436.000
DANDE 27 May 00:52:54 01:00:23 37° 273° (W) 01:07:19 436.750
50 SAT 27 May 00:53:47 00:54:47 11° 269° (W) 00:55:48 437.505
GONETS M04 27 May 00:58:00 01:02:21 14° 304° (NW) 01:06:42
DUCHIFAT 1 27 May 01:00:57 01:04:58 47° 288° (WNW) 01:08:57 145.980
Oscar 19 27 May 01:03:38 01:06:01 13° 89° (E) 01:08:24 437.125/150
RS-15 27 May 01:07:29 01:19:02 44° 38° (NE) 01:30:36 29.354- 29.394
CUSAT 1 27 May 01:11:04 01:14:13 13° 285° (WNW) 01:17:12 437.405
SPROUT 27 May 01:13:48 01:17:20 24° 265° (W) 01:20:53 437.525
YUBILEINY 27 May 01:21:18 01:23:32 11° 52° (NE) 01:25:46 435.215
SO-50 27 May 01:21:28 01:26:23 73° 305° (NW) 01:31:18 436.795
BUGSAT 1 27 May 01:22:58 01:26:56 56° 287° (WNW) 01:30:51 437.445
Cosmos 2499 27 May 01:31:55 01:33:58 11° 306° (NW) 01:36:04 435.465 / 435.565
POPSAT HIP 1 27 May 01:38:56 01:41:51 18° 295° (WNW) 01:44:43 437.405
QB50P1 27 May 01:39:29 01:42:19 18° 295° (WNW) 01:45:09 145.935-145.965
TISAT 1 27 May 01:40:36 01:44:37 41° 261° (W) 01:48:38 437.305
QB50P2 27 May 01:41:37 01:44:16 16° 296° (WNW) 01:46:54 145.880/145.840
POLYITAN 1 27 May 01:44:07 01:46:42 16° 296° (WNW) 01:49:17 437.675
SWISSCUBE 27 May 01:56:32 02:01:11 58° 72° (ENE) 02:05:52 437.505
NANOSAT C BR1 27 May 01:59:26 02:01:07 12° 298° (WNW) 02:02:46 145.865
ITUPSAT 1 27 May 02:02:12 02:06:52 59° 72° (ENE) 02:11:34 437.325
PHONESAT 2.4 27 May 02:13:59 02:16:58 43° 192° (SSW) 02:19:58 2401.200-2431.200
ISS 27 May 02:22:02 02:24:35 20° 13° (NNE) 02:27:08 145.825
Cosmos 2491 27 May 02:22:06 02:22:54 10° 71° (ENE) 02:23:41 435.465 / 435.565
JAS-2 27 May 02:25:14 02:32:43 64° 290° (WNW) 02:39:24 435.910
BEESAT 27 May 02:26:16 02:31:01 80° 257° (WSW) 02:35:49 436.000
Oscar 19 27 May 02:40:44 02:45:55 76° 286° (WNW) 02:51:02 437.125/150
Cosmos 2504 27 May 02:54:12 02:57:24 12° 56° (NE) 03:00:40 435.465 / 435.565
Gurwin Techsat 1B 27 May 02:56:34 03:01:52 65° 101° (E) 03:07:09 435.225
SO-50 27 May 03:04:55 03:07:43 15° 325° (NW) 03:10:32 436.795
YUBILEINY 27 May 03:14:05 03:22:40 56° 76° (ENE) 03:31:14 435.215
RS-15 27 May 03:20:17 03:32:30 72° 243° (WSW) 03:44:38 29.354- 29.394
ITAMSAT 1 27 May 03:20:30 03:25:28 42° 99° (E) 03:30:23 435.822/435.867
KKS-1 27 May 03:35:11 03:39:38 69° 73° (ENE) 03:44:05 437.445
SWISSCUBE 27 May 03:36:33 03:39:22 15° 269° (W) 03:42:11 437.505
ITUPSAT 1 27 May 03:42:18 03:45:05 15° 269° (W) 03:47:52 437.325
AO-7 27 May 03:43:34 03:50:45 31° 95° (E) 03:57:51 29.400- 29.500
MOZHAYETS 4 27 May 03:44:44 03:49:12 61° 74° (ENE) 03:53:44
PHONESAT 2.4 27 May 03:51:23 03:53:16 15° 208° (SSW) 03:55:09 2401.200-2431.200
ISS 27 May 03:58:11 04:01:27 71° 31° (NNE) 04:04:42 145.825
Cosmos 2491 27 May 04:09:07 04:17:43 60° 91° (E) 04:26:20 435.465 / 435.565
JAS-2 27 May 04:12:34 04:16:08 14° 311° (NW) 04:19:34 435.910
STARS 27 May 04:13:03 04:17:28 90° 77° (ENE) 04:21:55 437.465
Oscar 19 27 May 04:23:09 04:24:20 11° 304° (NW) 04:25:31 437.125/150
Gurwin Techsat 1B 27 May 04:37:45 04:41:19 18° 299° (WNW) 04:44:51 435.225
Cosmos 2504 27 May 04:44:20 04:52:38 61° 78° (ENE) 05:01:19 435.465 / 435.565
HORYU 2 27 May 04:52:47 04:56:13 22° 94° (E) 04:59:38 437.375
ITAMSAT 1 27 May 05:00:26 05:04:42 26° 296° (WNW) 05:08:58 435.822/435.867
CUBESAT XI-V 27 May 05:07:55 05:12:26 53° 72° (ENE) 05:17:02 437.345
AO-85 27 May 05:09:30 05:12:29 15° 107° (ESE) 05:15:27 145.980
YUBILEINY 27 May 05:11:32 05:19:00 33° 276° (W) 05:26:30 435.215
KKS-1 27 May 05:15:04 05:16:39 12° 270° (W) 05:18:14 437.445
MOZHAYETS 4 27 May 05:24:32 05:26:47 13° 270° (W) 05:29:02
ISS 27 May 05:35:41 05:37:32 14° 228° (SW) 05:39:22 145.825
AO-7 27 May 05:35:45 05:43:57 63° 294° (WNW) 05:52:09 29.400- 29.500
RS-15 27 May 05:35:48 05:42:41 17° 264° (W) 05:49:34 29.354- 29.394
NOAA 18 27 May 05:38:42 05:40:03 11° 88° (E) 05:41:24 137.9125
NOAA 15 27 May 05:42:32 05:45:28 15° 90° (E) 05:48:22 137.62
Cubesat XI-IV 27 May 05:46:34 05:47:24 10° 87° (E) 05:48:13 437.490
Cosmos 2491 27 May 06:07:25 06:15:04 32° 292° (WNW) 06:22:45 435.465 / 435.565
STRAND 1 27 May 06:10:19 06:14:14 23° 63° (ENE) 06:18:10 437.568
LilacSat-2 27 May 06:22:50 06:25:32 18° 93° (E) 06:28:13 437.200
HORYU 2 27 May 06:28:48 06:32:52 36° 291° (WNW) 06:36:55 437.375
BRITE-PL 27 May 06:29:02 06:33:38 32° 94° (E) 06:37:53 437.365/2234.400
CUTE-I 27 May 06:29:54 06:34:31 29° 95° (E) 06:39:06 437.470
Cosmos 2504 27 May 06:38:28 06:45:31 31° 276° (W) 06:52:51 435.465 / 435.565
AO-85 27 May 06:46:53 06:52:21 85° 304° (NW) 06:57:44 145.980
CUBESAT XI-V 27 May 06:47:11 06:50:09 17° 269° (W) 06:53:07 437.345
GOMX 1 27 May 06:57:22 07:01:21 27° 93° (E) 07:05:06 467.674
PRISM 27 May 07:06:34 07:08:16 12° 61° (ENE) 07:09:58 437.425
GONETS M04 27 May 07:10:14 07:14:00 13° 55° (NE) 07:17:45
NOAA 18 27 May 07:15:57 07:21:28 85° 105° (ESE) 07:26:58 137.9125
NOAA 15 27 May 07:20:28 07:25:46 72° 287° (WNW) 07:31:01 137.62
Cubesat XI-IV 27 May 07:22:50 07:28:14 84° 105° (ESE) 07:33:36 437.490
AO-7 27 May 07:30:39 07:35:07 16° 315° (NW) 07:39:35 29.400- 29.500
Cosmos 2499 27 May 07:32:13 07:33:34 10° 53° (NE) 07:34:57 435.465 / 435.565
HO-68 27 May 07:41:22 07:46:00 18° 90° (E) 07:50:37 435.675
STRAND 1 27 May 07:48:13 07:53:06 47° 261° (W) 07:58:02 437.568
DOVE 4 27 May 07:49:06 07:53:18 42° 98° (E) 07:57:17 437.250
AIST 1 27 May 07:49:12 07:52:47 24° 73° (ENE) 07:56:19
LilacSat-2 27 May 07:56:33 07:59:54 30° 289° (WNW) 08:03:15 437.200
BRITE-PL 27 May 08:07:33 08:12:02 30° 294° (WNW) 08:16:13 437.365/2234.400
CUTE-I 27 May 08:09:41 08:14:37 38° 292° (WNW) 08:19:33 437.470
SO-50 27 May 08:12:46 08:16:17 20° 40° (NE) 08:19:43 436.795
CINEMA 3 27 May 08:24:11 08:27:49 28° 96° (E) 08:31:25 145.822/145.860
AO-85 27 May 08:29:52 08:33:36 19° 322° (NW) 08:37:16 145.980
CANX-2 27 May 08:31:54 08:35:56 39° 97° (E) 08:39:57 2200.000
GOMX 1 27 May 08:35:19 08:39:27 30° 293° (WNW) 08:43:20 467.674
O/OREOS (USA 219) 27 May 08:35:58 08:37:14 11° 97° (E) 08:38:31 437.305
SEEDS 27 May 08:36:01 08:39:41 28° 95° (E) 08:43:21 437.485
PRISM 27 May 08:38:55 08:43:02 65° 258° (WSW) 08:47:11 437.425
NOAA 18 27 May 08:58:25 09:01:24 15° 303° (WNW) 09:04:22 137.9125
CUTE 1.7 + AOD 2 27 May 08:59:07 09:03:23 70° 101° (ESE) 09:07:40 437.475
Oscar 11 27 May 09:02:33 09:04:33 13° 90° (E) 09:06:33 145.826/435.025
NOAA 15 27 May 09:03:33 09:04:34 11° 305° (NW) 09:05:36 137.62
AUBIESAT-1 27 May 09:03:39 09:06:57 63° 107° (ESE) 09:10:14 437.475
GONETS M04 27 May 09:04:12 09:12:52 64° 78° (ENE) 09:21:27
Cubesat XI-IV 27 May 09:04:46 09:07:35 15° 302° (WNW) 09:10:24 437.490
M-CUBED/EXP-1 PRIME 27 May 09:09:54 09:13:11 81° 289° (WNW) 09:16:27 437.505
ZACube-1 27 May 09:15:08 09:17:38 15° 92° (E) 09:20:09 437.345
CUBEBUG 2 27 May 09:17:12 09:21:01 34° 97° (E) 09:24:51 437.445
Cosmos 2499 27 May 09:20:35 09:28:54 52° 76° (ENE) 09:37:29 435.465 / 435.565
COMPASS 1 27 May 09:22:47 09:26:59 67° 100° (E) 09:31:11 437.405
AAUSAT CUBESAT 2 27 May 09:25:52 09:30:02 57° 100° (E) 09:34:09 437.432
AIST 1 27 May 09:26:36 09:30:22 29° 270° (W) 09:34:04
HO-68 27 May 09:27:19 09:34:31 84° 289° (WNW) 09:41:42 435.675
DOVE 4 27 May 09:27:38 09:30:40 18° 296° (WNW) 09:33:36 437.250
UNISAT 6 27 May 09:29:54 09:33:19 23° 67° (ENE) 09:36:42 437.425
TIGRISAT 27 May 09:37:26 09:41:01 26° 68° (ENE) 09:44:34 435.000
UWE-3 27 May 09:46:43 09:50:48 51° 100° (E) 09:54:55 435.000/436.395/437.385
PCSat 27 May 09:49:50 09:55:04 51° 114° (ESE) 10:00:19 145.827
FUNcube-1 27 May 09:52:25 09:56:18 36° 98° (E) 10:00:14 145.935
SO-50 27 May 09:52:34 09:57:15 66° 239° (WSW) 10:01:45 436.795
DELFI C3 27 May 10:00:37 10:04:00 25° 95° (E) 10:07:21 145.870
CINEMA 3 27 May 10:01:31 10:04:52 24° 293° (WNW) 10:08:11 145.822/145.860
CANX-2 27 May 10:08:27 10:11:31 20° 294° (WNW) 10:14:36 2200.000
ANTELSAT 27 May 10:10:06 10:14:24 60° 74° (ENE) 10:18:39 437.575/2403.000
O/OREOS (USA 219) 27 May 10:11:25 10:15:59 74° 294° (WNW) 10:20:32 437.305
SEEDS 27 May 10:11:45 10:15:18 26° 292° (WNW) 10:18:51 437.485
DUCHIFAT 1 27 May 10:19:57 10:22:01 13° 63° (ENE) 10:24:05 145.980
Oscar 11 27 May 10:36:46 10:41:03 59° 286° (WNW) 10:45:19 145.826/435.025
CUTE 1.7 + AOD 2 27 May 10:37:03 10:38:39 12° 298° (WNW) 10:40:16 437.475
BUGSAT 1 27 May 10:41:11 10:42:12 11° 61° (ENE) 10:43:14 437.445
CUSAT 1 27 May 10:47:42 10:52:22 21° 80° (E) 10:57:38 437.405
ZACube-1 27 May 10:50:10 10:54:10 46° 287° (WNW) 10:58:13 437.345
CUBEBUG 2 27 May 10:54:21 10:57:27 21° 293° (WNW) 11:00:34 437.445
JAS-2 27 May 10:55:17 10:59:29 16° 51° (NE) 11:03:47 435.910
POPSAT HIP 1 27 May 10:55:31 10:59:20 34° 70° (ENE) 11:03:10 437.405
QB50P1 27 May 10:55:56 10:59:46 35° 70° (ENE) 11:03:38 145.935-145.965
QB50P2 27 May 10:57:58 11:01:54 38° 71° (ENE) 11:05:51 145.880/145.840
COMPASS 1 27 May 11:00:19 11:02:00 12° 298° (WNW) 11:03:42 437.405
POLYITAN 1 27 May 11:00:24 11:04:21 39° 71° (ENE) 11:08:18 437.675
GONETS M04 27 May 11:02:01 11:08:59 28° 278° (W) 11:15:57
HUMSAT D 27 May 11:02:10 11:06:16 57° 100° (E) 11:10:24 437.325/437.525
AAUSAT CUBESAT 2 27 May 11:02:54 11:05:02 14° 297° (WNW) 11:07:10 437.432
UNISAT 6 27 May 11:05:54 11:09:53 33° 263° (W) 11:13:48 437.425
TIGRISAT 27 May 11:13:48 11:17:37 29° 264° (W) 11:21:24 435.000
Cosmos 2499 27 May 11:14:08 11:21:45 37° 274° (W) 11:29:35 435.465 / 435.565
NANOSAT C BR1 27 May 11:14:18 11:18:25 53° 73° (ENE) 11:22:32 145.865
HO-68 27 May 11:16:42 11:21:13 18° 307° (NW) 11:25:45 435.675
UWE-3 27 May 11:24:31 11:26:52 15° 296° (WNW) 11:29:15 435.000/436.395/437.385
FUNcube-1 27 May 11:29:17 11:32:20 20° 294° (WNW) 11:35:23 145.935
BEESAT 2 27 May 11:31:06 11:34:13 22° 113° (ESE) 11:37:22 435.950
PCSat 27 May 11:34:07 11:38:43 27° 313° (NW) 11:43:20 145.827
DELFI C3 27 May 11:35:25 11:38:48 26° 291° (WNW) 11:42:09 145.870
AISAT 27 May 11:36:05 11:39:03 17° 92° (E) 11:42:00 437.250
UKube-1 27 May 11:46:47 11:49:08 14° 91° (E) 11:51:27 .
ANTELSAT 27 May 11:49:35 11:51:29 13° 270° (W) 11:53:22 437.575/2403.000
DUCHIFAT 1 27 May 11:53:04 11:57:14 60° 260° (W) 12:01:24 145.980
BEESAT 3 27 May 12:05:41 12:09:37 87° 302° (WNW) 12:13:36 437.485
ESTCUBE 1 27 May 12:11:32 12:16:04 60° 101° (E) 12:20:32 437.505/2401.250
BUGSAT 1 27 May 12:12:47 12:17:00 76° 259° (WSW) 12:21:11 437.445
DANDE 27 May 12:18:30 12:23:42 48° 90° (E) 12:30:28 436.750
50 SAT 27 May 12:19:17 12:22:58 56° 101° (E) 12:26:38 437.505
Oscar 19 27 May 12:20:30 12:24:29 23° 63° (ENE) 12:28:28 437.125/150
CUSAT 1 27 May 12:27:06 12:33:26 75° 283° (WNW) 12:41:12 437.405
CUBEBUG 1 27 May 12:29:22 12:33:44 65° 102° (ESE) 12:38:03 437.445
DX 1 27 May 12:31:17 12:35:34 53° 101° (E) 12:39:48 434.975-435.025
POPSAT HIP 1 27 May 12:31:56 12:35:11 21° 266° (W) 12:38:27 437.405
QB50P1 27 May 12:32:26 12:35:38 21° 266° (W) 12:38:51 145.935-145.965
QB50P2 27 May 12:34:51 12:37:51 19° 267° (W) 12:40:52 145.880/145.840
VELOX 1 27 May 12:35:17 12:39:43 72° 102° (ESE) 12:44:07 145.980
JAS-2 27 May 12:35:44 12:43:01 68° 71° (ENE) 12:50:49 435.910
POLYITAN 1 27 May 12:37:22 12:40:19 18° 267° (W) 12:43:17 437.675
HUMSAT D 27 May 12:39:23 12:41:27 14° 297° (WNW) 12:43:31 437.325/437.525
Gurwin Techsat 1B 27 May 12:41:21 12:44:27 16° 59° (ENE) 12:47:32 435.225
NANOSAT C BR1 27 May 12:52:18 12:54:28 14° 269° (W) 12:56:37 145.865
SPROUT 27 May 12:58:05 13:02:15 51° 100° (E) 13:06:23 437.525
AO-7 27 May 12:58:11 13:00:18 11° 39° (NE) 13:02:26 29.400- 29.500
BEESAT 2 27 May 13:08:13 13:11:53 35° 310° (NW) 13:15:35 435.950
AISAT 27 May 13:11:32 13:15:45 44° 289° (WNW) 13:19:56 437.250
UKube-1 27 May 13:21:16 13:25:30 53° 287° (WNW) 13:29:41 .
TISAT 1 27 May 13:23:55 13:27:28 26° 96° (E) 13:30:59 437.305
AIST 2 27 May 13:37:09 13:40:48 31° 115° (ESE) 13:44:29 435.215
AO-85 27 May 13:39:12 13:42:24 17° 36° (NE) 13:45:25 145.980
BEESAT 3 27 May 13:46:14 13:47:56 12° 322° (NW) 13:49:38 437.485
ESTCUBE 1 27 May 13:49:45 13:52:22 15° 298° (WNW) 13:54:59 437.505/2401.250
50 SAT 27 May 13:55:06 13:56:14 11° 297° (WNW) 13:57:21 437.505
SWISSCUBE 27 May 13:57:30 13:59:59 14° 90° (E) 14:02:28 437.505
Oscar 19 27 May 13:58:26 14:03:28 49° 260° (W) 14:08:31 437.125/150
DANDE 27 May 14:01:59 14:06:57 29° 296° (WNW) 14:13:07 436.750
ITUPSAT 1 27 May 14:03:26 14:05:59 14° 90° (E) 14:08:32 437.325
CUBEBUG 1 27 May 14:07:22 14:09:29 13° 298° (WNW) 14:11:34 437.445
DX 1 27 May 14:08:43 14:11:19 16° 297° (WNW) 14:13:55 434.975-435.025
CUSAT 1 27 May 14:13:07 14:17:10 16° 305° (NW) 14:21:34 437.405
VELOX 1 27 May 14:13:42 14:15:35 13° 299° (WNW) 14:17:28 145.980
Gurwin Techsat 1B 27 May 14:18:26 14:23:45 76° 257° (WSW) 14:29:05 435.225
Cosmos 2491 27 May 14:18:55 14:26:28 31° 68° (ENE) 14:33:54 435.465 / 435.565
JAS-2 27 May 14:22:37 14:28:35 26° 271° (W) 14:34:54 435.910
BEESAT 27 May 14:26:07 14:30:02 25° 95° (E) 14:33:56 436.000
YUBILEINY 27 May 14:27:47 14:29:15 10° 71° (ENE) 14:30:43 435.215
SPROUT 27 May 14:35:17 14:37:47 15° 296° (WNW) 14:40:17 437.525
ITAMSAT 1 27 May 14:39:08 14:44:15 69° 73° (ENE) 14:49:26 435.822/435.867
AO-7 27 May 14:43:14 14:50:58 46° 61° (ENE) 14:58:45 29.400- 29.500
TISAT 1 27 May 14:59:33 15:03:03 26° 292° (WNW) 15:06:31 437.305
AIST 2 27 May 15:15:41 15:19:17 28° 313° (NW) 15:22:54 435.215
AO-85 27 May 15:18:51 15:23:34 80° 237° (WSW) 15:27:49 145.980
KKS-1 27 May 15:27:24 15:29:11 12° 90° (E) 15:30:58 437.445
SWISSCUBE 27 May 15:33:28 15:38:14 65° 287° (WNW) 15:42:58 437.505
RS-15 27 May 15:38:08 15:44:25 17° 95° (E) 15:50:50 29.354- 29.394
ITUPSAT 1 27 May 15:39:29 15:44:15 64° 287° (WNW) 15:49:00 437.325
MOZHAYETS 4 27 May 15:40:28 15:42:52 14° 90° (E) 15:45:16
HORYU 2 27 May 15:51:40 15:55:08 23° 66° (ENE) 15:58:36 437.375
STARS 27 May 16:03:03 16:05:36 15° 92° (E) 16:08:08 437.465
BEESAT 27 May 16:03:30 16:07:54 37° 291° (WNW) 16:12:17 436.000
Cosmos 2491 27 May 16:15:16 16:23:51 61° 268° (W) 16:32:20 435.465 / 435.565
YUBILEINY 27 May 16:15:37 16:24:07 62° 92° (E) 16:32:38 435.215
ITAMSAT 1 27 May 16:21:23 16:24:14 15° 270° (W) 16:27:06 435.822/435.867
AO-7 27 May 16:35:58 16:43:44 43° 260° (W) 16:51:35 29.400- 29.500
PCSat 27 May 16:55:47 16:57:20 11° 32° (NNE) 16:58:54 145.827
KKS-1 27 May 17:01:47 17:06:11 65° 287° (WNW) 17:10:33 437.445
NOAA 15 27 May 17:02:42 17:07:06 27° 64° (ENE) 17:11:31 137.62
NOAA 18 27 May 17:04:03 17:08:25 25° 63° (ENE) 17:12:47 137.9125
CUBESAT XI-V 27 May 17:05:34 17:07:38 13° 89° (E) 17:09:40 437.345
LilacSat-2 27 May 17:07:17 17:08:31 11° 63° (ENE) 17:09:45 437.200
Cubesat XI-IV 27 May 17:07:33 17:11:26 21° 62° (ENE) 17:15:18 437.490
MOZHAYETS 4 27 May 17:15:51 17:20:26 61° 286° (WNW) 17:25:00
Cosmos 2504 27 May 17:24:22 17:31:08 45° 88° (E) 17:38:15 435.465 / 435.565
HORYU 2 27 May 17:27:27 17:31:30 35° 262° (W) 17:35:34 437.375
STARS 27 May 17:38:01 17:42:16 51° 288° (WNW) 17:46:28 437.465
BRITE-PL 27 May 17:39:06 17:44:24 43° 70° (ENE) 17:49:46 437.365/2234.400
RS-15 27 May 17:43:15 17:54:29 74° 117° (ESE) 18:06:23 29.354- 29.394
CUTE-I 27 May 17:52:20 17:57:26 50° 70° (ENE) 18:02:34 437.470
GOMX 1 27 May 18:04:51 18:09:51 37° 69° (ENE) 18:14:44 467.674
HO-68 27 May 18:12:25 18:16:36 17° 52° (NE) 18:20:47 435.675
YUBILEINY 27 May 18:14:07 18:21:29 30° 293° (WNW) 18:28:55 435.215
Cosmos 2491 27 May 18:17:32 18:18:41 10° 289° (WNW) 18:19:49 435.465 / 435.565
M-CUBED/EXP-1 PRIME 27 May 18:24:23 18:26:33 14° 60° (ENE) 18:28:37 437.505
PCSat 27 May 18:36:50 18:42:07 49° 54° (NE) 18:47:21 145.827
LilacSat-2 27 May 18:38:36 18:42:21 57° 260° (W) 18:46:06 437.200
CUBESAT XI-V 27 May 18:40:47 18:45:30 69° 285° (WNW) 18:50:09 437.345
NOAA 15 27 May 18:41:39 18:46:39 42° 262° (W) 18:51:42 137.62
O/OREOS (USA 219) 27 May 18:41:56 18:45:43 26° 57° (ENE) 18:49:27 437.305
NOAA 18 27 May 18:43:32 18:48:47 47° 260° (W) 18:54:03 137.9125
Cubesat XI-IV 27 May 18:45:52 18:51:04 56° 259° (W) 18:56:19 437.490
BEESAT 3 27 May 18:47:01 18:47:48 10° 35° (NE) 18:48:36 437.485
DOVE 4 27 May 18:54:07 18:59:10 51° 72° (ENE) 19:04:02 437.250
BRITE-PL 27 May 19:18:08 19:22:57 29° 267° (W) 19:27:51 437.365/2234.400
Cosmos 2504 27 May 19:18:13 19:24:40 34° 290° (WNW) 19:31:29 435.465 / 435.565
CANX-2 27 May 19:25:28 19:29:10 31° 69° (ENE) 19:32:53 2200.000
CINEMA 3 27 May 19:26:05 19:30:16 32° 70° (ENE) 19:34:18 145.822/145.860
SEEDS 27 May 19:28:50 19:32:02 22° 67° (ENE) 19:35:15 437.485
CUTE-I 27 May 19:33:45 19:37:45 21° 267° (W) 19:41:47 437.470
